OOVKB EGGP-EBOS

Flight info

Callsign OOVKB
Flight time 0h 52m
Altitude 20000
Route SID NANTI UY53 NUGRA Y53 PEDIG M605 DTY L10 DVR L9 KONAN UL607 KOK STAR
Aircraft C25C/M-SEDY/S

Departure

Time 2026-04-30 13:01
Airport Liverpool John Lennon Airport (EGGP)

Arrival

Time 2026-04-30 13:54
Airport Ostend-Bruges International Airport (EBOS)
Time Latitude Longitude Altitude Speed Heading
2026-04-30 12:30 53.33634 -2.86335 84 ft 0 kts 355°
2026-04-30 12:49 53.33635 -2.86335 79 ft 0 kts 353°
2026-04-30 12:50 53.33633 -2.86347 79 ft 2 kts 222°
2026-04-30 12:50 53.33622 -2.86347 82 ft 5 kts 167°
2026-04-30 12:50 53.33549 -2.86276 81 ft 7 kts 187°
2026-04-30 12:50 53.33536 -2.86281 81 ft 0 kts 196°
2026-04-30 12:51 53.33535 -2.86281 81 ft 0 kts 195°
2026-04-30 12:57 53.33522 -2.86287 83 ft 17 kts 196°
2026-04-30 12:57 53.33445 -2.86638 79 ft 38 kts 259°
2026-04-30 12:58 53.33428 -2.86995 79 ft 3 kts 250°
2026-04-30 12:58 53.33428 -2.86996 79 ft 0 kts 250°
2026-04-30 12:59 53.33426 -2.86998 79 ft 4 kts 225°
2026-04-30 12:59 53.33394 -2.86798 82 ft 17 kts 111°
2026-04-30 12:59 53.33369 -2.86723 83 ft 0 kts 159°
2026-04-30 13:00 53.33368 -2.86722 79 ft 2 kts 160°
2026-04-30 13:00 53.33290 -2.86640 76 ft 21 kts 101°
2026-04-30 13:01 53.33295 -2.86579 78 ft 0 kts 87°
2026-04-30 13:01 53.33296 -2.86503 77 ft 34 kts 89°
2026-04-30 13:01 53.33329 -2.85512 81 ft 133 kts 87°
2026-04-30 13:01 53.33373 -2.83667 751 ft 160 kts 92°
2026-04-30 13:02 53.33372 -2.81884 2442 ft 163 kts 96°
2026-04-30 13:02 53.32980 -2.80022 3761 ft 179 kts 126°
2026-04-30 13:02 53.32118 -2.78436 5235 ft 190 kts 142°
2026-04-30 13:02 53.30987 -2.77210 6668 ft 198 kts 152°
2026-04-30 13:03 53.29754 -2.76126 8074 ft 202 kts 151°
2026-04-30 13:03 53.28550 -2.74886 9598 ft 204 kts 147°
2026-04-30 13:03 53.27397 -2.73496 11026 ft 205 kts 144°
2026-04-30 13:03 53.26270 -2.72052 12455 ft 203 kts 143°
2026-04-30 13:04 53.25154 -2.70622 13930 ft 201 kts 143°
2026-04-30 13:04 53.24061 -2.69242 15210 ft 190 kts 144°
2026-04-30 13:04 53.23038 -2.67965 16281 ft 181 kts 144°
2026-04-30 13:04 53.22020 -2.66700 17087 ft 183 kts 145°
2026-04-30 13:05 53.20995 -2.65424 17928 ft 184 kts 145°
2026-04-30 13:05 53.19965 -2.64141 18743 ft 185 kts 146°
2026-04-30 13:05 53.18932 -2.62857 19499 ft 185 kts 146°
2026-04-30 13:06 53.16674 -2.60137 20173 ft 232 kts 147°
2026-04-30 13:06 53.15254 -2.58482 20168 ft 267 kts 146°
2026-04-30 13:06 53.13651 -2.56578 20156 ft 299 kts 144°
2026-04-30 13:06 53.12053 -2.54101 20131 ft 329 kts 134°
2026-04-30 13:07 53.10652 -2.50933 20199 ft 347 kts 124°
2026-04-30 13:07 53.09523 -2.47367 20201 ft 349 kts 118°
2026-04-30 13:07 53.08488 -2.43735 20198 ft 346 kts 121°
2026-04-30 13:07 53.07278 -2.40298 20199 ft 344 kts 126°
2026-04-30 13:08 53.05884 -2.37087 20197 ft 341 kts 130°
2026-04-30 13:08 53.04437 -2.33962 20194 ft 341 kts 129°
2026-04-30 13:08 53.03048 -2.30765 20189 ft 341 kts 127°
2026-04-30 13:08 53.01681 -2.27547 20186 ft 340 kts 129°
2026-04-30 13:09 53.00223 -2.24469 20186 ft 339 kts 131°
2026-04-30 13:09 52.98714 -2.21463 20190 ft 338 kts 132°
2026-04-30 13:09 52.97216 -2.18453 20193 ft 338 kts 131°
2026-04-30 13:09 52.95745 -2.15406 20179 ft 339 kts 130°
2026-04-30 13:10 52.94286 -2.12339 20192 ft 338 kts 130°
2026-04-30 13:10 52.92827 -2.09285 20197 ft 338 kts 131°
2026-04-30 13:10 52.91361 -2.06246 20195 ft 338 kts 131°
2026-04-30 13:10 52.89907 -2.03252 20196 ft 338 kts 131°
2026-04-30 13:11 52.88435 -2.00220 20195 ft 338 kts 131°
2026-04-30 13:11 52.86962 -1.97187 20195 ft 338 kts 131°
2026-04-30 13:11 52.85489 -1.94147 20194 ft 338 kts 131°
2026-04-30 13:11 52.84016 -1.91113 20193 ft 338 kts 131°
2026-04-30 13:12 52.82541 -1.88081 20194 ft 338 kts 131°
2026-04-30 13:12 52.81066 -1.85053 20196 ft 338 kts 131°
2026-04-30 13:12 52.79588 -1.82024 20204 ft 338 kts 131°
2026-04-30 13:13 52.76632 -1.75972 20104 ft 340 kts 131°
2026-04-30 13:13 52.75142 -1.72942 20073 ft 340 kts 131°
2026-04-30 13:13 52.71709 -1.67664 20024 ft 338 kts 147°
2026-04-30 13:14 52.69663 -1.65777 20006 ft 337 kts 154°
2026-04-30 13:14 52.67533 -1.64141 19988 ft 337 kts 154°
2026-04-30 13:14 52.63527 -1.60130 19950 ft 338 kts 145°
2026-04-30 13:15 52.61616 -1.57857 19939 ft 338 kts 145°
2026-04-30 13:15 52.57734 -1.53576 19919 ft 337 kts 148°
2026-04-30 13:15 52.55756 -1.51512 19920 ft 337 kts 148°
2026-04-30 13:16 52.53788 -1.49431 19934 ft 336 kts 148°
2026-04-30 13:16 52.51830 -1.47326 19938 ft 336 kts 147°
2026-04-30 13:16 52.49876 -1.45214 19952 ft 336 kts 147°
2026-04-30 13:17 52.45969 -1.41024 19990 ft 336 kts 147°
2026-04-30 13:17 52.44010 -1.38934 20008 ft 335 kts 147°
2026-04-30 13:17 52.40756 -1.35466 20174 ft 334 kts 147°
2026-04-30 13:18 52.38156 -1.32698 20239 ft 333 kts 147°
2026-04-30 13:18 52.34260 -1.28553 20252 ft 334 kts 147°
2026-04-30 13:18 52.32310 -1.26483 20257 ft 335 kts 147°
2026-04-30 13:19 52.30353 -1.24407 20260 ft 335 kts 147°
2026-04-30 13:19 52.28398 -1.22336 20262 ft 335 kts 147°
2026-04-30 13:19 52.26440 -1.20264 20265 ft 336 kts 147°
2026-04-30 13:19 52.24481 -1.18194 20262 ft 336 kts 147°
2026-04-30 13:20 52.22540 -1.16145 20261 ft 336 kts 147°
2026-04-30 13:20 52.20574 -1.14071 20261 ft 336 kts 147°
2026-04-30 13:20 52.18606 -1.12011 20255 ft 336 kts 147°
2026-04-30 13:20 52.16740 -1.09712 20242 ft 337 kts 139°
2026-04-30 13:21 52.15172 -1.06845 20239 ft 340 kts 128°
2026-04-30 13:21 52.13965 -1.03525 20230 ft 343 kts 118°
2026-04-30 13:21 52.13013 -0.99965 20225 ft 343 kts 116°
2026-04-30 13:22 52.10691 -0.93228 20193 ft 340 kts 128°
2026-04-30 13:22 52.09240 -0.90204 20200 ft 339 kts 130°
2026-04-30 13:22 52.06410 -0.84044 20207 ft 341 kts 126°
2026-04-30 13:23 52.05161 -0.80980 20208 ft 341 kts 125°
2026-04-30 13:23 52.02506 -0.74566 20218 ft 341 kts 127°
2026-04-30 13:24 51.99792 -0.68267 20221 ft 341 kts 127°
2026-04-30 13:24 51.97108 -0.61966 20216 ft 342 kts 126°
2026-04-30 13:25 51.94393 -0.55610 20210 ft 343 kts 127°
2026-04-30 13:25 51.91669 -0.49266 20217 ft 343 kts 126°
2026-04-30 13:26 51.87577 -0.39745 20213 ft 344 kts 126°
2026-04-30 13:26 51.84839 -0.33401 20213 ft 344 kts 126°
2026-04-30 13:27 51.82094 -0.27060 20209 ft 344 kts 126°
2026-04-30 13:28 51.77978 -0.17569 20360 ft 343 kts 126°
2026-04-30 13:28 51.75230 -0.11284 20351 ft 343 kts 127°
2026-04-30 13:28 51.73847 -0.08139 20347 ft 344 kts 127°
2026-04-30 13:29 51.71068 -0.01861 20325 ft 344 kts 127°
2026-04-30 13:29 51.68270 0.04409 20229 ft 346 kts 127°
2026-04-30 13:30 51.64504 0.12769 20201 ft 347 kts 127°
2026-04-30 13:31 51.61659 0.19026 20202 ft 346 kts 127°
2026-04-30 13:31 51.58445 0.29372 20206 ft 350 kts 107°
2026-04-30 13:32 51.56730 0.36648 20202 ft 347 kts 121°
2026-04-30 13:32 51.53892 0.42801 20236 ft 345 kts 131°
2026-04-30 13:33 51.51085 0.49119 20238 ft 346 kts 122°
2026-04-30 13:33 51.48647 0.55765 20243 ft 345 kts 123°
2026-04-30 13:34 51.47358 0.59021 20247 ft 345 kts 124°
2026-04-30 13:34 51.43449 0.68676 20239 ft 346 kts 123°
2026-04-30 13:35 51.42156 0.71936 20235 ft 346 kts 123°
2026-04-30 13:35 51.39567 0.78426 20234 ft 346 kts 123°
2026-04-30 13:36 51.36966 0.84891 20226 ft 346 kts 124°
2026-04-30 13:36 51.35665 0.88125 20222 ft 345 kts 123°
2026-04-30 13:36 51.33067 0.94586 20211 ft 346 kts 124°
2026-04-30 13:37 51.31763 0.97816 20200 ft 346 kts 124°
2026-04-30 13:37 51.29152 1.04267 20194 ft 345 kts 124°
2026-04-30 13:38 51.26538 1.10709 20184 ft 345 kts 123°
2026-04-30 13:38 51.25233 1.13931 20183 ft 346 kts 124°
2026-04-30 13:38 51.22633 1.20327 20180 ft 346 kts 124°
2026-04-30 13:39 51.20011 1.26750 20181 ft 346 kts 124°
2026-04-30 13:39 51.17383 1.33174 20180 ft 346 kts 124°
2026-04-30 13:40 51.16112 1.36431 20177 ft 346 kts 119°
2026-04-30 13:40 51.15207 1.39986 20180 ft 348 kts 107°
2026-04-30 13:40 51.14810 1.43790 20181 ft 350 kts 96°
2026-04-30 13:40 51.14876 1.47676 20185 ft 352 kts 86°
2026-04-30 13:41 51.15274 1.51531 20186 ft 353 kts 83°
2026-04-30 13:41 51.15574 1.55400 20183 ft 351 kts 89°
2026-04-30 13:41 51.15545 1.59212 20184 ft 348 kts 96°
2026-04-30 13:41 51.15205 1.63070 20182 ft 347 kts 102°
2026-04-30 13:42 51.14770 1.66797 20182 ft 347 kts 101°
2026-04-30 13:42 51.14468 1.70620 20172 ft 348 kts 97°
2026-04-30 13:42 51.14202 1.78318 20165 ft 348 kts 95°
2026-04-30 13:43 51.14039 1.82165 20164 ft 348 kts 96°
2026-04-30 13:43 51.13827 1.86002 20161 ft 348 kts 97°
2026-04-30 13:43 51.13606 1.89838 20160 ft 348 kts 97°
2026-04-30 13:43 51.13399 1.93675 20161 ft 348 kts 96°
2026-04-30 13:44 51.13203 1.97523 20161 ft 349 kts 96°
2026-04-30 13:44 51.13004 2.01379 20160 ft 349 kts 96°
2026-04-30 13:44 51.12807 2.05188 20129 ft 333 kts 96°
2026-04-30 13:44 51.12621 2.08773 19671 ft 317 kts 96°
2026-04-30 13:45 51.12259 2.15490 18808 ft 293 kts 97°
2026-04-30 13:45 51.12086 2.18684 18363 ft 285 kts 97°
2026-04-30 13:45 51.11918 2.21782 17876 ft 276 kts 97°
2026-04-30 13:46 51.11756 2.24769 17403 ft 267 kts 97°
2026-04-30 13:46 51.11597 2.27667 16932 ft 259 kts 97°
2026-04-30 13:46 51.11441 2.30487 16468 ft 253 kts 97°
2026-04-30 13:46 51.11288 2.33248 16016 ft 248 kts 97°
2026-04-30 13:47 51.11137 2.35951 15566 ft 243 kts 97°
2026-04-30 13:47 51.10989 2.38617 15115 ft 240 kts 96°
2026-04-30 13:47 51.10842 2.41240 14701 ft 237 kts 96°
2026-04-30 13:47 51.10697 2.43836 14275 ft 234 kts 96°
2026-04-30 13:48 51.10552 2.46399 13828 ft 231 kts 96°
2026-04-30 13:48 51.10409 2.48936 13363 ft 229 kts 96°
2026-04-30 13:48 51.10265 2.51467 12681 ft 235 kts 96°
2026-04-30 13:48 51.10115 2.54077 11862 ft 245 kts 97°
2026-04-30 13:49 51.09943 2.56804 11051 ft 251 kts 98°
2026-04-30 13:49 51.10020 2.59604 10268 ft 260 kts 78°
2026-04-30 13:49 51.10875 2.62173 9405 ft 269 kts 53°
2026-04-30 13:49 51.12414 2.63944 8567 ft 280 kts 28°
2026-04-30 13:50 51.14311 2.64736 7765 ft 283 kts 15°
2026-04-30 13:50 51.18066 2.65855 6218 ft 249 kts 17°
2026-04-30 13:50 51.19532 2.66882 5453 ft 218 kts 44°
2026-04-30 13:51 51.20459 2.68602 4713 ft 196 kts 68°
2026-04-30 13:51 51.20864 2.70585 3994 ft 183 kts 88°
2026-04-30 13:51 51.20616 2.72437 3134 ft 176 kts 134°
2026-04-30 13:51 51.19659 2.73584 2462 ft 174 kts 144°
2026-04-30 13:52 51.18745 2.74399 2553 ft 116 kts 138°
2026-04-30 13:52 51.18192 2.75192 2158 ft 102 kts 128°
2026-04-30 13:52 51.18322 2.76287 1178 ft 156 kts 72°
2026-04-30 13:52 51.18522 2.77848 1426 ft 142 kts 81°
2026-04-30 13:53 51.18743 2.79435 1255 ft 154 kts 79°
2026-04-30 13:53 51.19015 2.81091 877 ft 156 kts 78°
2026-04-30 13:53 51.19287 2.82819 488 ft 162 kts 78°
2026-04-30 13:53 51.19536 2.84565 196 ft 159 kts 78°
2026-04-30 13:54 51.19773 2.86082 26 ft 115 kts 79°
2026-04-30 13:54 51.19919 2.87068 9 ft 62 kts 75°
2026-04-30 13:54 51.20016 2.87459 9 ft 24 kts 31°
2026-04-30 13:54 51.20103 2.87542 8 ft 0 kts 31°
2026-04-30 13:55 51.20150 2.87555 8 ft 16 kts 315°
2026-04-30 13:55 51.20128 2.87304 8 ft 38 kts 253°
2026-04-30 13:56 51.20051 2.86798 8 ft 37 kts 258°
2026-04-30 13:56 51.20122 2.86693 8 ft 24 kts 359°
2026-04-30 13:56 51.20217 2.86754 8 ft 0 kts 71°
2026-04-30 13:56 51.20235 2.86889 8 ft 21 kts 99°
2026-04-30 13:57 51.20197 2.86943 8 ft 14 kts 171°
2026-04-30 13:57 51.20164 2.86956 8 ft 0 kts 162°